EW1587 Weather Reports


time (UTC)temp
F
wind
direction
speed
knots
gust
knots
rain 1hr
in
rain 24hr
in
rain mn
in
humidity
%
barometer
mb
20260903163516 85 184 0.9 7.8 0.00 0.00 0.00 61 1008.3
20260903163016 85 236 1.7 6.1 0.00 0.00 0.00 61 1008.3
20260903162515 84 243 2.6 6.1 0.00 0.00 0.00 63 1008.3
20260903162013 84 193 1.7 9.6 0.00 0.00 0.00 63 1008.2
20260903161512 83 252 1.7 9.6 0.00 0.00 0.00 64 1008.3
20260903161011 83 240 1.7 8.7 0.00 0.00 0.00 66 1008.3
20260903160510 83 246 0.9 7.0 0.00 0.00 0.00 69 1008.3
20260903160013 82 92 1.7 7.0 0.00 0.00 0.00 70 1008.4
20260903155510 82 163 0.9 7.0 0.00 0.00 0.00 71 1008.5
20260903155006 81 176 0.9 9.6 0.00 0.00 0.00 72 1008.5
20260903154506 81 187 3.5 9.6 0.00 0.00 0.00 70 1008.4
20260903154004 81 235 0.9 8.7 0.00 0.00 0.00 73 1008.4
20260903153502 80 232 2.6 8.7 0.00 0.00 0.00 73 1008.5
20260903153101 80 97 3.5 6.1 0.00 0.00 0.00 74 1008.5
20260903152600 80 143 1.7 6.1 0.00 0.00 0.00 75 1008.4
20260903152102 79 194 1.7 5.2 0.00 0.00 0.00 76 1008.4
20260903151558 79 136 0.9 7.8 0.00 0.00 0.00 78 1008.5
20260903151056 79 311 3.5 7.8 0.00 0.00 0.00 77 1008.4
20260903150556 79 231 2.6 6.1 0.00 0.00 0.00 79 1008.4
20260903150055 79 100 1.7 6.1 0.00 0.00 0.00 80 1008.5
20260903145554 78 75 1.7 6.1 0.00 0.00 0.00 81 1008.5
20260903145053 77 174 0.0 5.2 0.00 0.00 0.00 84 1008.4
20260903144552 76 117 1.7 6.1 0.00 0.00 0.00 84 1008.3
20260903144052 76 87 1.7 6.1 0.00 0.00 0.00 85 1008.4
20260903143548 75 111 2.6 6.1 0.00 0.00 0.00 85 1008.5
20260903143105 75 81 1.7 5.2 0.00 0.00 0.00 86 1008.4
20260903142546 75 124 1.7 6.1 0.00 0.00 0.00 87 1008.4
20260903142045 74 113 3.5 6.1 0.00 0.00 0.00 87 1008.5
20260903141544 74 89 0.0 6.1 0.00 0.00 0.00 89 1008.7
20260903141045 73 97 1.7 6.1 0.00 0.00 0.00 90 1008.7
20260903140541 73 103 1.7 4.3 0.00 0.00 0.00 91 1008.7
20260903140039 72 75 0.9 4.3 0.00 0.00 0.00 92 1008.8
20260903135539 72 91 1.7 4.3 0.00 0.00 0.00 92 1008.9
20260903135038 72 89 1.7 4.3 0.00 0.00 0.00 92 1009.0
20260903134537 71 90 0.9 4.3 0.00 0.00 0.00 92 1009.0
20260903134038 71 117 2.6 4.3 0.00 0.00 0.00 92 1009.1
20260903133537 71 97 1.7 3.5 0.00 0.00 0.00 92 1009.3
20260903133036 71 86 1.7 3.5 0.00 0.00 0.00 93 1009.2
20260903132535 71 103 0.9 3.5 0.00 0.00 0.00 94 1009.1
20260903132035 70 88 1.7 3.5 0.00 0.00 0.00 93 1008.9
20260903131538 70 94 1.7 3.5 0.00 0.00 0.00 94 1008.9
20260903131036 70 94 1.7 3.5 0.00 0.00 0.00 96 1008.9
20260903130538 69 79 1.7 3.5 0.00 0.00 0.00 96 1008.8
20260903130035 69 89 1.7 3.5 0.00 0.00 0.00 97 1008.8
20260903125535 68 81 0.9 5.2 0.00 0.00 0.00 97 1008.7
20260903125034 68 81 1.7 4.3 0.00 0.00 0.00 97 1008.8
20260903124539 68 96 2.6 7.0 0.00 0.00 0.00 97 1009.0
20260903124034 68 96 2.6 7.0 0.00 0.00 0.00 97 1009.0
20260903123535 67 85 1.7 4.3 0.00 0.00 0.00 97 1008.9
20260903123039 67 100 0.9 3.5 0.00 0.00 0.00 97 1008.9
20260903122534 67 65 1.7 3.5 0.00 0.00 0.00 97 1008.8
20260903122034 67 65 0.9 3.5 0.00 0.00 0.00 97 1008.8
20260903121535 67 91 0.9 4.3 0.00 0.00 0.00 97 1008.7
20260903121034 67 81 1.7 4.3 0.00 0.00 0.00 97 1008.8
20260903120536 67 101 1.7 3.5 0.00 0.00 0.00 97 1008.8
20260903120035 67 92 1.7 3.5 0.00 0.00 0.00 96 1008.8
20260903115534 67 86 1.7 4.3 0.00 0.00 0.00 96 1008.9
20260903115035 67 79 1.7 5.2 0.00 0.00 0.00 96 1008.8
20260903114533 67 82 0.9 5.2 0.00 0.00 0.00 96 1008.8
20260903114034 67 86 1.7 4.3 0.00 0.00 0.00 96 1009.0
20260903113532 67 91 1.7 4.3 0.00 0.00 0.00 96 1008.8
20260903113040 67 97 1.7 4.3 0.00 0.00 0.00 97 1008.7
20260903112531 67 92 0.9 4.3 0.00 0.00 0.00 96 1008.6
20260903112030 67 107 1.7 3.5 0.00 0.00 0.00 96 1008.6
20260903111530 67 95 1.7 3.5 0.00 0.00 0.00 96 1008.6
20260903111032 67 84 0.9 2.6 0.00 0.00 0.00 96 1008.6
20260903110529 67 91 1.7 2.6 0.00 0.00 0.00 96 1008.7
20260903110032 67 74 0.9 3.5 0.00 0.00 0.00 96 1008.8
20260903105529 67 90 1.7 3.5 0.00 0.00 0.00 96 1008.8
20260903105029 67 101 1.7 3.5 0.00 0.00 0.00 96 1008.9
20260903104529 67 96 1.7 3.5 0.00 0.00 0.00 96 1009.0
20260903104028 67 77 0.9 3.5 0.00 0.00 0.00 96 1008.9
20260903103528 67 71 0.9 3.5 0.00 0.00 0.00 96 1009.0
20260903103028 67 98 0.9 2.6 0.00 0.00 0.00 96 1008.9
20260903102528 67 65 0.0 1.7 0.00 0.00 0.00 95 1008.9
20260903102031 68 81 0.0 1.7 0.00 0.00 0.00 95 1008.8
20260903101527 68 103 0.0 1.7 0.00 0.00 0.00 95 1008.8
20260903101031 68 92 0.0 0.9 0.00 0.00 0.00 94 1008.7
20260903100527 68 77 0.0 2.6 0.00 0.00 0.00 94 1008.7
20260903100027 68 94 0.9 2.6 0.00 0.00 0.00 95 1008.8
20260903095528 68 84 0.0 2.6 0.00 0.00 0.00 95 1008.7
20260903095027 68 77 0.0 1.7 0.00 0.00 0.00 95 1008.7
20260903094526 67 82 0.0 1.7 0.00 0.00 0.00 95 1008.6
20260903094026 67 77 0.0 0.9 0.00 0.00 0.00 94 1008.6
20260903093525 68 83 0.0 0.9 0.00 0.00 0.00 93 1008.7
20260903093041 68 86 0.0 3.5 0.00 0.00 0.00 93 1008.7
20260903092523 68 92 0.0 4.3 0.00 0.00 0.00 93 1008.6
20260903092145 68 97 1.7 4.3 0.00 0.00 0.00 93 1008.6
20260903091019 68 101 1.7 2.6 0.00 0.00 0.00 93 1008.7
20260903090519 68 90 0.9 2.6 0.00 0.00 0.00 93 1008.8
20260903090018 68 87 0.0 3.5 0.00 0.00 0.00 92 1008.7
20260903085518 68 101 1.7 3.5 0.00 0.00 0.00 92 1008.7
20260903085018 68 88 0.9 2.6 0.00 0.00 0.00 92 1008.7
20260903084523 68 86 0.0 1.7 0.00 0.00 0.00 92 1008.8
20260903084017 68 81 0.0 3.5 0.00 0.00 0.00 92 1008.7
20260903083516 68 84 1.7 3.5 0.00 0.00 0.00 92 1008.8
20260903083015 68 96 1.7 3.5 0.00 0.00 0.00 93 1008.9
20260903082515 68 108 0.9 2.6 0.00 0.00 0.00 92 1008.9
20260903082015 68 84 0.9 2.6 0.00 0.00 0.00 92 1009.1
20260903081515 68 77 0.9 1.7 0.00 0.00 0.00 92 1009.0
20260903081014 68 94 0.0 1.7 0.00 0.00 0.00 91 1008.9
20260903080513 68 84 0.0 2.6 0.00 0.00 0.00 90 1009.0
20260903080135 68 91 0.9 2.6 0.00 0.00 0.00 90 1009.0
20260903075514 68 98 0.9 3.5 0.00 0.00 0.00 89 1009.0
20260903075013 68 113 0.9 3.5 0.00 0.00 0.00 90 1009.1
20260903074512 68 91 0.9 2.6 0.00 0.00 0.00 89 1009.0
20260903074011 69 95 0.0 2.6 0.00 0.00 0.00 88 1009.1
20260903073511 69 82 1.7 2.6 0.00 0.00 0.00 89 1009.2
20260903073011 69 117 0.9 1.7 0.00 0.00 0.00 89 1009.4
20260903072510 69 93 0.0 1.7 0.00 0.00 0.00 88 1009.3
20260903072010 69 85 0.0 2.6 0.00 0.00 0.00 88 1009.3
20260903071510 69 96 0.9 3.5 0.00 0.00 0.00 88 1009.3
20260903071009 69 101 1.7 3.5 0.00 0.00 0.00 88 1009.3
20260903070508 69 86 0.0 2.6 0.00 0.00 0.00 87 1009.4
20260903070007 69 99 0.9 2.6 0.00 0.00 0.00 87 1009.4
20260903065507 69 109 0.0 1.7 0.00 0.00 0.00 87 1009.5
20260903065006 69 84 0.0 2.6 0.00 0.00 0.00 86 1009.5
20260903064504 69 73 0.0 2.6 0.00 0.00 0.00 86 1009.6
20260903064007 69 86 0.9 2.6 0.00 0.00 0.00 85 1009.6
20260903063503 70 107 0.9 2.6 0.00 0.00 0.00 84 1009.5
20260903063002 70 101 0.9 3.5 0.00 0.00 0.00 84 1009.5
20260903062502 70 47 0.0 3.5 0.00 0.00 0.00 83 1009.5
20260903062101 70 105 1.7 3.5 0.00 0.00 0.00 83 1009.6
20260903061607 70 105 0.9 2.6 0.00 0.00 0.00 83 1009.6
20260903061059 70 105 1.7 3.5 0.00 0.00 0.00 83 1009.7
20260903060559 70 98 1.7 3.5 0.00 0.00 0.00 83 1009.7
20260903060059 70 96 1.7 3.5 0.00 0.00 0.00 82 1009.7
20260903055559 70 75 1.7 3.5 0.00 0.00 0.00 82 1009.7
20260903055058 70 65 1.7 3.5 0.00 0.00 0.00 83 1009.7
20260903054558 70 97 0.9 3.5 0.00 0.00 0.00 83 1009.7
20260903054059 71 65 1.7 3.5 0.00 0.00 0.00 83 1009.8
20260903053559 71 84 1.7 3.5 0.00 0.00 0.00 82 1009.8
20260903053055 71 79 0.9 2.6 0.00 0.00 0.00 82 1009.8
20260903052555 72 91 0.9 3.5 0.00 0.00 0.00 81 1009.7
20260903052055 72 101 1.7 3.5 0.00 0.00 0.00 81 1009.7
20260903051553 72 89 0.0 2.6 0.00 0.00 0.00 81 1009.8
20260903051051 72 81 0.9 3.5 0.00 0.00 0.00 81 1009.9
20260903050555 72 79 0.0 3.5 0.00 0.00 0.00 81 1010.0
20260903050050 72 67 0.9 3.5 0.00 0.00 0.00 81 1009.9
20260903045549 72 89 1.7 3.5 0.00 0.00 0.00 80 1010.0
20260903045048 72 111 0.9 3.5 0.00 0.00 0.00 81 1009.9
20260903044548 72 60 0.0 3.5 0.00 0.00 0.00 81 1010.0
20260903044048 72 73 0.0 3.5 0.00 0.00 0.00 80 1010.0
20260903043549 72 82 0.9 2.6 0.00 0.00 0.00 81 1010.0
20260903043048 72 79 0.0 2.6 0.00 0.00 0.00 81 1010.0
20260903042550 71 75 0.0 1.7 0.00 0.00 0.00 82 1010.0
20260903042051 71 47 0.0 1.7 0.00 0.00 0.00 82 1010.1
20260903041548 71 86 0.0 1.7 0.00 0.00 0.00 83 1010.2
20260903041049 71 90 0.0 1.7 0.00 0.00 0.00 83 1010.2
20260903040550 71 82 0.0 2.6 0.00 0.00 0.00 83 1010.2
20260903040048 71 77 0.9 2.6 0.00 0.00 0.00 83 1010.2
20260903035546 71 78 1.7 3.5 0.00 0.00 0.00 83 1010.2
20260903035049 71 82 0.0 1.7 0.00 0.00 0.00 82 1010.1
20260903034555 71 56 0.0 1.7 0.00 0.00 0.00 82 1010.2
20260903034046 71 77 0.0 1.7 0.00 0.00 0.00 82 1010.2
20260903033548 72 82 0.9 1.7 0.00 0.00 0.00 81 1010.2
20260903033046 72 82 0.0 1.7 0.00 0.00 0.00 80 1010.2
20260903032547 72 86 0.0 1.7 0.00 0.00 0.00 79 1010.2
20260903032043 73 97 0.0 3.5 0.00 0.00 0.00 78 1010.2
20260903031547 73 90 0.0 3.5 0.00 0.00 0.00 77 1010.1
20260903031044 73 94 0.9 2.6 0.00 0.00 0.00 77 1010.2
20260903030546 73 98 0.9 2.6 0.00 0.00 0.00 77 1010.1
20260903030043 73 85 0.0 2.6 0.00 0.00 0.00 76 1010.2
20260903025543 73 78 0.9 3.5 0.00 0.00 0.00 77 1010.3
20260903025044 73 79 0.9 2.6 0.00 0.00 0.00 78 1010.3
20260903024541 73 85 0.0 1.7 0.00 0.00 0.00 78 1010.2
20260903024041 73 82 0.0 1.7 0.00 0.00 0.00 77 1010.2
20260903023545 73 81 0.0 1.7 0.00 0.00 0.00 77 1010.2
20260903023040 74 72 0.0 2.6 0.00 0.00 0.00 76 1010.1
20260903022539 74 97 0.9 2.6 0.00 0.00 0.00 76 1010.1
20260903022041 74 86 0.0 1.7 0.00 0.00 0.00 75 1010.2
20260903021538 74 92 0.0 0.9 0.00 0.00 0.00 75 1010.1
20260903021038 75 97 0.0 1.7 0.00 0.00 0.00 74 1010.1
20260903020540 75 91 0.0 2.6 0.00 0.00 0.00 74 1010.1
20260903020050 74 93 0.9 2.6 0.00 0.00 0.00 74 1010.0
20260903015639 74 96 0.0 1.7 0.00 0.00 0.00 76 1010.0
20260903015040 74 85 0.0 0.9 0.00 0.00 0.00 77 1010.0
20260903014536 74 78 0.0 0.9 0.00 0.00 0.00 76 1010.0
20260903014034 74 78 0.0 0.9 0.00 0.00 0.00 76 1009.9
20260903013535 75 72 0.0 0.9 0.00 0.00 0.00 74 1009.8
20260903013034 76 68 0.0 0.9 0.00 0.00 0.00 73 1009.8
20260903012535 77 69 0.0 0.9 0.00 0.00 0.00 70 1009.7
20260903012036 77 86 0.0 0.9 0.00 0.00 0.00 68 1009.7
20260903011538 77 95 0.0 0.9 0.00 0.00 0.00 68 1009.7
20260903011032 77 89 0.0 1.7 0.00 0.00 0.00 67 1009.6
20260903010532 78 89 0.0 1.7 0.00 0.00 0.00 67 1009.6
20260903010031 78 103 0.0 1.7 0.00 0.00 0.00 66 1009.5
20260903005531 78 86 0.0 1.7 0.00 0.00 0.00 66 1009.5
20260903005032 79 111 0.0 0.9 0.00 0.00 0.00 65 1009.5
20260903004530 80 101 0.0 0.9 0.00 0.00 0.00 64 1009.5
20260903004030 80 101 0.0 0.9 0.00 0.00 0.00 63 1009.4
20260903003528 82 105 0.0 0.9 0.00 0.00 0.00 62 1009.4
20260903003028 84 64 0.0 0.9 0.00 0.00 0.00 61 1009.5
20260903002630 85 67 0.0 0.9 0.00 0.00 0.00 56 1009.6
20260903002028 87 152 0.0 0.0 0.00 0.00 0.00 51 1009.6
20260903001527 88 152 0.0 0.9 0.00 0.00 0.00 51 1009.5
20260903001033 88 127 0.0 0.9 0.00 0.00 0.00 51 1009.4
20260903000527 88 166 0.0 0.9 0.00 0.00 0.00 51 1009.4
20260903000027 88 122 0.0 0.9 0.00 0.00 0.00 51 1009.4
20260902235526 88 146 0.0 0.9 0.00 0.00 0.00 50 1009.6
20260902235025 88 175 0.0 1.7 0.00 0.00 0.00 51 1009.4
20260902234525 88 118 0.0 1.7 0.00 0.00 0.00 50 1009.4
20260902234025 89 111 0.0 2.6 0.00 0.00 0.00 49 1009.4
20260902233525 89 124 0.0 3.5 0.00 0.00 0.00 50 1009.5
20260902233025 89 204 0.0 1.7 0.00 0.00 0.00 49 1009.4
20260902232525 88 179 0.0 0.9 0.00 0.00 0.00 50 1009.4
20260902232026 87 123 0.0 1.7 0.00 0.00 0.00 51 1009.4
20260902231523 86 105 0.0 2.6 0.00 0.00 0.00 50 1009.3
20260902231022 87 68 0.0 4.3 0.00 0.00 0.00 49 1009.4
20260902230523 87 99 1.7 4.3 0.00 0.00 0.00 48 1009.5
20260902230023 87 118 0.0 3.5 0.00 0.00 0.00 50 1009.5
20260902225624 87 235 0.0 4.3 0.00 0.00 0.00 51 1009.5
20260902225023 86 110 0.0 3.5 0.00 0.00 0.00 51 1009.5
20260902224520 86 95 0.0 3.5 0.00 0.00 0.00 51 1009.5
20260902224019 87 110 0.9 3.5 0.00 0.00 0.00 48 1009.5
20260902223519 88 105 0.0 2.6 0.00 0.00 0.00 48 1009.6
20260902223027 88 53 0.0 1.7 0.00 0.00 0.00 47 1009.7
20260902222518 89 125 0.0 2.6 0.00 0.00 0.00 46 1009.6
20260902222017 89 61 0.0 2.6 0.00 0.00 0.00 47 1009.7
20260902221518 88 335 0.0 1.7 0.00 0.00 0.00 49 1009.6
20260902221015 88 110 0.0 2.6 0.00 0.00 0.00 50 1009.6
20260902220514 87 259 0.0 4.3 0.00 0.00 0.00 51 1009.7
20260902220020 85 253 0.0 4.3 0.00 0.00 0.00 53 1009.7
20260902215514 85 111 1.7 3.5 0.00 0.00 0.00 53 1009.7
20260902215013 84 64 0.0 4.3 0.00 0.00 0.00 54 1009.7
20260902214513 84 92 0.9 5.2 0.00 0.00 0.00 53 1009.8
20260902214012 84 96 0.9 5.2 0.00 0.00 0.00 53 1009.8
20260902213511 85 114 1.7 5.2 0.00 0.00 0.00 53 1009.9
20260902213011 85 120 0.9 4.3 0.00 0.00 0.00 53 1009.9
20260902212511 84 119 0.9 3.5 0.00 0.00 0.00 53 1009.9
20260902212011 84 88 0.9 3.5 0.00 0.00 0.00 53 1010.0
20260902211510 84 114 0.9 4.3 0.00 0.00 0.00 54 1010.0
20260902211011 84 110 1.7 5.2 0.00 0.00 0.00 53 1010.1
20260902210509 84 71 2.6 4.3 0.00 0.00 0.00 53 1010.1
20260902210010 85 91 2.6 5.2 0.00 0.00 0.00 52 1010.1
20260902205510 85 98 2.6 5.2 0.00 0.00 0.00 52 1010.2
20260902205008 85 156 0.9 5.2 0.00 0.00 0.00 50 1010.2
20260902204509 86 84 1.7 4.3 0.00 0.00 0.00 50 1010.1
20260902204006 86 158 0.9 4.3 0.00 0.00 0.00 50 1010.1
20260902203508 87 99 1.7 3.5 0.00 0.00 0.00 49 1010.3
20260902203006 87 153 0.0 2.6 0.00 0.00 0.00 51 1010.3
20260902202505 87 20 0.0 4.3 0.00 0.00 0.00 50 1010.3
20260902202005 86 219 0.9 5.2 0.00 0.00 0.00 48 1010.3
20260902201511 86 172 0.0 5.2 0.00 0.00 0.00 54 1010.3
20260902201002 86 295 0.0 5.2 0.00 0.00 0.00 54 1010.4
20260902200501 85 72 0.9 5.2 0.00 0.00 0.00 56 1010.5
20260902200101 85 127 1.7 4.3 0.00 0.00 0.00 55 1010.4
20260902195559 84 124 0.0 5.2 0.00 0.00 0.00 56 1010.4
20260902195057 83 223 0.9 7.0 0.00 0.00 0.00 57 1010.4
20260902194602 83 117 1.7 7.0 0.00 0.00 0.00 57 1010.5
20260902194057 83 113 4.3 7.8 0.00 0.00 0.00 57 1010.5
20260902193556 83 68 3.5 7.8 0.00 0.00 0.00 56 1010.5
20260902193059 83 77 0.0 5.2 0.00 0.00 0.00 58 1010.7
20260902192555 84 56 1.7 5.2 0.00 0.00 0.00 57 1010.7
20260902192056 84 65 0.9 4.3 0.00 0.00 0.00 57 1010.7
20260902191554 84 115 0.0 3.5 0.00 0.00 0.00 59 1010.8
20260902191052 83 122 0.0 3.5 0.00 0.00 0.00 59 1010.7
20260902190551 82 109 0.9 3.5 0.00 0.00 0.00 60 1010.8
20260902190050 82 58 0.0 3.5 0.00 0.00 0.00 58 1010.9
20260902185550 82 67 0.0 4.3 0.00 0.00 0.00 60 1010.9
20260902185051 81 93 1.7 7.0 0.00 0.00 0.00 60 1011.1
20260902184551 81 69 2.6 7.0 0.00 0.00 0.00 60 1011.1
20260902184051 82 34 3.5 6.1 0.00 0.00 0.00 58 1011.2
20260902183547 82 73 0.9 5.2 0.00 0.00 0.00 60 1011.3
20260902183047 81 174 0.0 4.3 0.00 0.00 0.00 60 1011.3
20260902182545 81 96 2.6 4.3 0.00 0.00 0.00 62 1011.4
20260902182045 80 61 0.0 4.3 0.00 0.00 0.00 61 1011.4
20260902181553 80 18 0.0 4.3 0.00 0.00 0.00 62 1011.4
20260902181046 80 101 0.9 6.1 0.00 0.00 0.00 63 1011.4
20260902180545 80 173 1.7 7.8 0.00 0.00 0.00 60 1011.4
20260902180045 80 115 3.5 7.8 0.00 0.00 0.00 64 1011.4
20260902175544 80 117 3.5 7.0 0.00 0.00 0.00 59 1011.4
20260902175047 81 84 2.6 5.2 0.00 0.00 0.00 60 1011.5
20260902174547 81 78 1.7 5.2 0.00 0.00 0.00 61 1011.6
20260902174044 81 122 0.0 4.3 0.00 0.00 0.00 60 1011.6
20260902173543 81 101 0.9 4.3 0.00 0.00 0.00 60 1011.7
20260902173046 81 214 0.0 5.2 0.00 0.00 0.00 59 1011.7
20260902172541 81 72 0.9 5.2 0.00 0.00 0.00 64 1011.8
20260902172040 81 82 0.9 4.3 0.00 0.00 0.00 64 1011.8
20260902171548 80 160 0.0 4.3 0.00 0.00 0.00 65 1011.8
20260902171038 79 109 0.9 4.3 0.00 0.00 0.00 66 1011.8
20260902170536 79 85 0.0 3.5 0.00 0.00 0.00 70 1011.8
20260902170035 77 187 0.0 2.6 0.00 0.00 0.00 72 1012.1
20260902165534 77 103 0.9 4.3 0.00 0.00 0.00 71 1012.2
20260902165033 77 92 0.9 4.3 0.00 0.00 0.00 71 1012.1
20260902164533 77 67 1.7 4.3 0.00 0.00 0.00 69 1012.1
20260902164030 76 50 0.0 4.3 0.00 0.00 0.00 70 1012.0